FENGYUN 1C DEB

Satellite information

Favourite Embed

Satellite Type and Status

DEBRISIN ORBIT

Key statistics

Satellite FENGYUN 1C DEB at a glance.

Uptime

9715

Days in orbit

Revolutions

≈ 14.2

Per day

Orbit

SSO

Sun Synchronous Orbit

Inclination

99.2

Latest

Satellite identification and parameters

Extended collection of information and parameters for FENGYUN 1C DEB.

Object identification

Identified? True

Debris? True

Object name: FENGYUN 1C DEB

International designator: 1999-025ALZ

Object number (NORAD): 30594

Object ID (CCSDS): 30594

Country: PEOPLES REPUBLIC OF CHINA (PRC)

Current information (Y/N): Y

RCS size: SMALL

Orbital parameters

Period: 101.599 minutes

Inclination: 99.1513 deg

SMA: 7212.509 km

Apoapsis: 973.93 km

Periapsis: 694.818 km

RAAN: 200.6638 deg

Eccentricy: 0.0193492

Argument of periapsis: 322.5898 deg

Mean anomaly: 36.1934 deg

Mean motion: 14.17337284 rev/day

Mean motion (dot): 0.00000645 rev/day2

B* drag term: 0.00028585 1/REarth

Two-line elements (TLE)

Creation date: Dec. 10, 2025, 10:56 p.m.

Reference frame: TEME

Reference center: EARTH

Epoch: Dec. 10, 2025, 1:08 p.m. UTC

TLE line 0: 0 FENGYUN 1C DEB

TLE line 1: 1 30594U 99025ALZ 25344.54786903 .00000645 00000-0 28585-3 0 9992

TLE line 2: 2 30594 99.1513 200.6638 0193492 322.5898 36.1934 14.17337284975480

Live tracking on map

Real-time ground track for satellite FENGYUN 1C DEB.

In-orbit conjunctions

A list of the most updated potential collisions computed for object FENGYUN 1C DEB.

Target Orbit TCA Probability of collision Miss distance Type
METEOR 2-12 LEO 2024-11-27 18:20:43 0.0001194953 794.0 (m) PAYLOAD
FENGYUN 1C DEB SSO 2024-07-13 11:52:02 0.0002776022 47.0 (m) DEBRIS

Associated space launch

Chinese polar orbiting meteorological satellite

FENGYUN 1C DEB was lifted into orbit during the mission ‘Long March 4B | Feng Yun 1C’, on board a Long March 4B space rocket.

The launch took place on May 10, 1999, 1:33 a.m. from Launch Complex 7.

For more information about the launch, click the button.

Launch to space Long March 4B | Feng Yun 1C
Long March 4B | Feng Yun 1C

Agency: N/A

Status: Launch Successful

Launch date: May 10, 1999, 1:33 a.m. UTC

Rocket: Long March 4B

Launch pad: Launch Complex 7

Location: Taiyuan Satellite Launch Center, People's Republic of China

...

Latest news about this satellite

There are no fresh news available about this satellite. Check back as we update our databases every day.


Newsletter sign-up

Weekly statistics, charts and insights to help you stay on top of the space industry.